GS0511 Weather Reports


time (UTC)temp
F
wind
direction
speed
knots
gust
knots
rain 1hr
in
rain 24hr
in
rain mn
in
humidity
%
barometer
mb
20260504004502 51 249 1.7 3.5 0.00 0.00 0.00 70 1010.4
20260504003001 51 287 0.9 3.5 0.00 0.00 0.00 71 1010.4
20260504001501 51 248 0.9 3.5 0.00 0.00 0.00 73 1010.7
20260504000006 51 271 1.7 5.2 0.00 0.00 0.00 74 1010.8
20260503233002 51 289 4.3 10.4 0.00 0.00 0.00 72 1010.6
20260503231502 52 294 7.0 16.5 0.00 0.00 0.00 69 1010.5
20260503224501 54 225 5.2 13.9 0.00 0.00 0.00 58 1010.3
20260503223001 54 277 6.1 13.0 0.00 0.00 0.00 59 1010.0
20260503221502 54 232 7.0 14.8 0.00 0.00 0.00 56 1010.2
20260503220006 55 252 5.2 15.6 0.00 0.00 0.00 54 1010.1
20260503214501 55 219 5.2 12.2 0.00 0.00 0.00 51 1010.0
20260503213001 55 263 5.2 14.8 0.00 0.00 0.00 52 1010.2
20260503210005 55 284 5.2 12.2 0.00 0.00 0.00 52 1010.2
20260503201500 57 244 6.1 16.5 0.00 0.00 0.00 49 1010.3
20260503200004 57 204 7.0 17.4 0.00 0.00 0.00 47 1010.6
20260503194500 56 243 7.0 14.8 0.00 0.00 0.00 46 1010.8
20260503193000 57 225 6.1 14.8 0.00 0.00 0.00 46 1011.3
20260503190004 55 265 6.1 12.2 0.00 0.00 0.00 47 1011.6
20260503183000 54 278 6.1 16.5 0.00 0.00 0.00 45 1012.3
20260503181500 55 235 6.1 12.2 0.00 0.00 0.00 45 1012.4
20260503180006 54 262 5.2 11.3 0.00 0.00 0.00 45 1012.4
20260503174500 53 269 4.3 11.3 0.00 0.00 0.00 44 1012.5
20260503173000 54 289 5.2 13.0 0.00 0.00 0.00 50 1012.7
20260503171501 53 238 5.2 12.2 0.00 0.00 0.00 49 1012.8
20260503081459 34 223 0.0 0.0 0.00 0.00 0.00 89 1014.6
20260503071501 36 226 0.0 1.7 0.00 0.00 0.00 86 1014.6
20260503054458 38 244 0.0 1.7 0.00 0.00 0.00 80 1014.8
20260503052958 39 244 0.0 0.0 0.00 0.00 0.00 80 1014.9
20260503051459 39 244 0.0 0.0 0.00 0.00 0.00 80 1015.2
20260503050001 40 236 0.0 2.6 0.00 0.00 0.00 80 1015.3
20260503044500 40 225 0.0 1.7 0.00 0.00 0.00 80 1015.4
20260503041458 40 267 0.9 3.5 0.00 0.00 0.00 79 1015.3
20260503040007 40 274 0.9 2.6 0.00 0.00 0.00 79 1015.5
20260503034502 41 270 0.9 3.5 0.00 0.00 0.00 78 1015.5
20260503033002 41 261 0.9 4.3 0.00 0.00 0.00 79 1015.5
20260503031502 41 239 1.7 3.5 0.00 0.00 0.00 79 1015.5
20260503030006 41 232 1.7 5.2 0.00 0.00 0.00 79 1015.6
20260503024501 41 238 1.7 6.1 0.00 0.00 0.00 78 1015.7
20260503023001 41 236 0.9 6.1 0.00 0.00 0.00 78 1015.9
20260503021501 41 265 0.9 4.3 0.00 0.00 0.00 77 1016.1
20260503020007 41 246 1.7 6.1 0.00 0.00 0.00 77 1016.0
20260503014501 41 251 0.9 3.5 0.00 0.00 0.00 77 1016.0
20260503013001 41 251 0.9 2.6 0.00 0.00 0.00 76 1015.9
20260503011501 41 220 0.9 5.2 0.00 0.00 0.00 76 1015.9
20260503010004 42 244 0.9 2.6 0.00 0.00 0.00 76 1015.9